GW1109 Weather Reports


Display with metric or nautical units.
time (UTC)temp
F
wind
direction
speed
MPH
gust
MPH
rain 1hr
in
rain 24hr
in
rain mn
in
humidity
%
barometer
mb
20260505021602 60 225 5.0 12.0 0.00 0.00 0.00 41 1007.9
20260505020047 60 205 4.0 9.0 0.00 0.00 0.00 41 1007.7
20260505014545 60 229 4.0 8.0 0.00 0.00 0.00 40 1007.4
20260505013040 60 219 2.0 6.0 0.00 0.00 0.00 41 1007.2
20260505011554 60 224 3.0 7.0 0.00 0.00 0.00 40 1007.1
20260505010048 60 238 2.0 5.0 0.00 0.00 0.00 40 1006.9
20260505004546 61 209 3.0 5.0 0.00 0.00 0.00 38 1006.6
20260505003040 62 200 2.0 6.0 0.00 0.00 0.00 36 1006.5
20260505001541 62 187 1.0 4.0 0.00 0.00 0.00 37 1006.3
20260505000049 62 229 1.0 3.0 0.00 0.00 0.00 36 1006.1
20260504234547 64 248 1.0 4.0 0.00 0.00 0.00 34 1005.9
20260504233055 65 249 2.0 6.0 0.00 0.00 0.00 33 1005.9
20260504231541 66 0 2.0 12.0 0.00 0.00 0.00 32 1005.7
20260504230047 67 215 5.0 10.0 0.00 0.00 0.00 29 1005.3
20260504224546 67 246 5.0 9.0 0.00 0.00 0.00 30 1005.3
20260504223049 67 212 5.0 12.0 0.00 0.00 0.00 30 1005.2
20260504221547 67 269 8.0 17.0 0.00 0.00 0.00 28 1005.1
20260504220104 68 269 10.0 18.0 0.00 0.00 0.00 27 1005.1
20260504214547 69 282 8.0 16.0 0.00 0.00 0.00 27 1005.1
20260504213050 69 306 7.0 17.0 0.00 0.00 0.00 30 1005.0
20260504211541 69 271 10.0 19.0 0.00 0.00 0.00 27 1005.0
20260504210049 69 273 10.0 20.0 0.00 0.00 0.00 27 1004.9
20260504204557 69 281 6.0 16.0 0.00 0.00 0.00 31 1004.8
20260504203046 68 266 8.0 17.0 0.00 0.00 0.00 30 1004.7
20260504201551 67 256 9.0 21.0 0.00 0.00 0.00 29 1004.7
20260504200053 67 241 10.0 18.0 0.00 0.00 0.00 30 1004.7
20260504194549 68 306 8.0 18.0 0.00 0.00 0.00 31 1004.9
20260504193047 68 286 8.0 20.0 0.00 0.00 0.00 27 1004.9
20260504191545 68 268 5.0 19.0 0.00 0.00 0.00 36 1005.0
20260504190044 66 315 9.0 19.0 0.00 0.00 0.00 31 1005.1
20260504184540 65 281 11.0 21.0 0.00 0.00 0.00 30 1005.1
20260504183040 67 279 10.0 26.0 0.00 0.00 0.00 29 1005.1
20260504181552 67 252 13.0 26.0 0.00 0.00 0.00 27 1005.0
20260504180050 68 239 8.0 24.0 0.00 0.00 0.00 30 1004.9
20260504174546 65 263 12.0 25.0 0.00 0.00 0.00 30 1005.0
20260504173050 65 252 12.0 25.0 0.00 0.00 0.00 30 1005.2
20260504171548 66 309 15.0 23.0 0.00 0.00 0.00 28 1005.1
20260504081549 41 257 3.0 7.0 0.00 0.00 0.00 57 1008.5
20260504044545 38 250 2.0 9.0 0.00 0.00 0.00 62 1008.3
20260504043055 38 259 4.0 9.0 0.00 0.00 0.00 61 1008.2
20260504041544 39 201 5.0 8.0 0.00 0.00 0.00 61 1008.1
20260504040046 39 234 3.0 9.0 0.00 0.00 0.00 61 1008.1
20260504034549 39 257 3.0 8.0 0.00 0.00 0.00 60 1008.0
20260504033048 41 264 2.0 9.0 0.00 0.00 0.00 56 1007.9
20260504031546 43 242 4.0 10.0 0.00 0.00 0.00 51 1007.8
20260504030047 43 288 3.0 8.0 0.00 0.00 0.00 51 1007.7
20260504024548 43 273 3.0 10.0 0.00 0.00 0.00 51 1007.7
20260504023049 42 284 4.0 9.0 0.00 0.00 0.00 53 1007.7